Wind_Speed
23 21 20 19 18 17 16 15 14 13 12 11 10 10 9 9 8 6 6 6 5 5 4 4 4 4 4 4 4 4 5 5 5 5 6 6 7 7 7 8 8 9 9
25 24 22 21 20 19 18 17 16 15 14 13 13 12 11 11 10 9 8 7 7 7 6 6 6 5 5 5 5 6 6 6 7 7 7 8 8 8 9 9 10 10 11
26 26 25 24 23 22 21 20 19 18 17 16 15 14 14 13 12 11 10 10 9 9 8 8 8 7 7 7 7 7 8 8 8 8 9 9 9 10 10 11 11 12 12
27 27 27 26 25 24 23 22 21 20 19 19 17 17 16 15 14 14 13 12 11 11 10 9 9 9 9 9 9 9 9 9 9 10 10 11 11 11 12 12 13 13 14
28 28 28 27 27 26 25 24 23 22 21 21 20 19 18 18 17 16 15 14 14 13 12 12 11 11 11 11 11 11 11 11 11 11 12 12 12 13 13 14 14 15 15
29 29 29 28 28 28 27 26 25 24 23 23 22 21 21 20 19 18 17 16 15 15 15 14 14 14 14 14 13 13 13 13 13 14 14 14 14 14 15 15 16 16 17
30 30 30 30 30 29 29 29 27 26 25 25 24 23 23 22 21 20 19 18 18 17 17 17 16 16 16 16 15 15 15 15 15 16 16 16 16 16 17 17 18 18 18
31 31 31 30 30 30 30 30 29 28 27 27 26 25 24 24 23 22 22 21 20 20 19 19 18 18 18 17 17 17 17 17 17 18 18 18 18 18 18 19 19 19 19
32 31 31 31 31 30 30 30 29 29 29 28 28 27 26 26 25 25 24 24 23 23 22 21 21 20 20 20 20 20 20 20 20 20 20 20 20 20 20 20 20 20 20
31 31 31 31 31 30 30 30 30 30 30 29 29 29 28 28 27 27 26 26 25 25 24 23 23 22 22 22 22 22 22 22 22 22 22 22 22 22 22 22 21 21 22
31 31 31 31 31 31 31 30 30 30 30 31 31 31 30 29 29 29 28 27 27 26 26 26 25 24 24 24 24 24 24 24 24 24 24 24 24 23 23 23 23 23 23
32 32 32 32 32 32 32 32 32 32 32 31 32 32 31 31 31 30 30 29 29 28 28 28 27 26 26 25 25 26 26 26 26 26 25 25 25 24 24 24 25 25 25
33 33 33 33 33 33 33 34 34 34 34 33 33 33 33 33 33 32 32 31 31 30 30 30 29 28 28 28 27 27 27 27 27 27 27 27 27 26 26 26 26 27 27
34 34 35 35 34 34 34 34 35 35 35 35 35 35 35 35 35 34 34 33 33 32 32 32 31 31 30 30 29 29 28 29 29 29 29 29 29 29 28 29 28 28 28
36 36 36 36 36 35 35 36 36 37 37 37 37 37 36 36 36 35 35 35 35 34 34 33 33 32 32 32 31 31 30 31 31 31 30 30 30 30 30 30 30 30 30
36 37 37 38 38 38 37 37 38 38 38 38 38 38 37 37 37 37 37 37 37 36 35 35 35 35 34 34 34 34 33 33 33 32 32 32 32 32 32 32 32 32 32
37 37 37 38 38 39 39 38 37 38 39 39 39 39 39 39 38 38 39 38 38 38 38 37 37 37 37 37 37 36 36 35 35 34 34 34 34 34 34 34 34 34 34
37 37 37 38 38 38 39 38 37 37 38 38 39 39 39 40 40 40 40 40 40 39 39 39 38 39 39 39 38 38 37 37 37 37 36 36 35 35 35 35 35 36 36
38 38 38 38 38 38 39 39 38 37 38 38 38 39 39 40 40 40 40 40 41 41 40 40 40 40 40 40 40 40 39 39 39 40 39 37 36 36 36 36 37 37 37
38 39 39 39 39 39 39 40 40 40 39 39 39 39 39 40 40 40 40 41 41 42 42 42 42 41 42 41 41 41 41 40 40 41 40 39 39 39 38 38 38 38 38
39 39 40 40 40 40 40 40 41 41 41 41 40 40 40 40 41 41 40 41 41 41 42 42 42 42 42 43 44 44 44 43 42 42 42 40 40 41 40 40 40 40 40
37 38 39 40 41 41 41 41 41 41 41 41 41 41 41 40 40 41 41 41 41 41 41 41 41 42 43 43 44 45 45 45 44 43 43 42 41 42 42 42 42 42 41
36 37 38 39 40 40 41 41 41 41 42 41 40 40 41 41 41 41 41 41 41 41 41 41 40 41 41 42 43 45 45 44 44 44 43 43 43 43 44 44 43 43 43
34 35 37 37 38 39 40 40 40 40 40 40 40 40 40 40 40 40 40 40 41 42 42 42 41 41 41 42 43 44 44 44 44 43 43 43 44 44 44 44 44 44 44
32 33 34 35 36 37 38 38 39 39 38 38 38 39 39 39 40 40 40 40 41 41 41 41 41 41 41 42 42 42 42 42 43 44 44 44 45 45 45 45 46 45 44
32 33 33 34 35 35 35 36 37 37 38 38 37 38 38 39 39 39 40 41 40 40 41 41 40 41 41 42 42 42 42 42 42 42 43 44 45 45 46 46 46 46 45
Wind_Direction
234 234 234 233 234 235 235 234 235 237 238 238 238 236 232 230 229 228 228 227 228 232 235 236 241 249 257 262 263 267 271 275 277 279 283 288 292 295 298 302 305 308 310
236 235 235 235 236 237 237 237 238 239 239 240 240 239 237 236 236 237 238 239 240 243 246 247 249 253 259 266 271 273 275 276 277 279 282 285 288 291 294 296 299 301 303
237 237 237 237 237 237 238 240 241 242 241 241 241 241 241 240 240 241 242 245 247 249 250 251 253 255 260 265 271 274 274 275 277 279 281 283 286 288 289 292 294 296 297
237 238 239 238 238 238 239 240 241 242 242 241 241 242 243 243 243 244 245 248 249 250 253 255 256 259 262 265 268 272 274 275 276 279 281 283 285 287 289 290 292 293 294
238 239 239 239 240 240 240 241 242 243 243 243 243 243 243 245 246 247 248 249 250 252 255 258 260 262 264 266 268 270 272 275 276 278 281 283 284 286 288 290 290 291 292
238 239 239 239 239 240 241 241 242 243 244 245 245 245 245 247 248 249 250 250 252 255 257 260 262 264 266 267 268 269 271 274 276 277 279 282 283 284 286 288 289 289 290
239 239 240 240 240 241 241 242 242 243 243 245 246 246 246 247 249 250 252 252 254 257 259 261 264 267 266 267 268 269 271 273 276 277 279 280 282 284 285 286 288 288 289
239 239 240 240 241 241 242 242 242 243 243 244 246 247 247 248 249 251 252 254 257 259 260 262 265 267 267 267 268 270 271 273 275 276 278 279 281 283 284 285 286 287 288
238 238 239 239 240 241 241 241 242 243 245 246 247 248 249 249 251 252 253 255 257 259 262 263 264 266 267 267 268 269 271 273 275 276 277 279 281 283 284 284 285 286 287
238 238 238 239 240 241 241 242 243 245 246 247 249 250 250 251 252 253 254 255 257 259 262 263 264 266 266 267 268 270 271 272 274 275 276 278 280 281 282 283 284 285 286
237 238 239 239 240 241 242 243 245 246 248 249 250 251 251 252 252 253 254 255 256 258 261 263 264 266 266 267 268 270 271 272 273 274 275 276 279 280 280 282 283 285 286
237 238 239 240 241 242 243 244 246 247 249 250 251 252 253 253 253 253 254 255 256 257 260 261 263 265 266 267 270 271 272 273 273 275 275 276 278 279 280 282 283 284 285
238 238 239 241 242 244 246 247 248 250 251 252 253 254 254 254 254 253 254 255 255 257 259 260 262 265 266 267 270 271 272 272 273 274 275 276 277 278 280 282 283 284 285
239 240 241 242 244 245 246 248 250 251 252 253 254 254 254 254 254 253 253 254 255 256 258 259 261 264 265 267 269 270 271 272 273 273 274 275 276 278 280 281 282 284 285
241 241 243 244 245 247 248 249 250 252 253 253 254 254 254 254 253 252 253 254 254 255 256 258 259 262 264 265 266 269 270 271 272 273 273 274 276 277 279 280 282 283 284
243 243 244 246 247 248 250 251 252 252 253 253 254 254 254 254 253 253 253 254 254 255 256 257 258 260 263 264 265 267 268 270 272 272 274 274 275 276 278 279 280 281 283
244 245 246 247 248 249 249 250 252 253 253 253 253 254 254 254 255 255 255 255 255 256 256 257 258 260 262 264 265 267 268 269 271 273 273 274 275 276 278 279 280 280 282
245 246 247 247 248 249 249 250 250 253 254 254 254 254 254 254 254 255 256 255 256 256 257 257 259 260 261 263 264 266 268 268 270 271 272 273 275 276 278 279 280 281 281
247 248 249 249 249 250 251 251 251 252 253 254 254 254 254 254 254 255 256 256 256 257 257 257 259 261 261 262 263 265 267 269 271 272 271 272 274 276 277 278 279 280 281
249 250 250 251 251 252 253 253 254 254 255 255 255 254 254 255 255 254 255 256 257 258 258 258 259 260 261 262 263 265 267 268 270 271 273 273 274 275 276 277 278 279 281
251 251 251 252 253 254 255 255 255 255 256 257 257 256 255 256 256 255 255 256 257 258 258 258 259 260 261 262 263 264 266 267 270 271 272 273 274 274 275 277 277 279 280
253 253 252 253 254 255 255 255 255 255 256 258 258 257 257 258 257 257 256 256 256 257 258 258 259 260 261 262 263 265 266 267 269 270 270 271 273 273 274 277 278 279 280
254 254 254 254 255 255 255 256 255 255 256 257 258 258 257 257 257 257 256 256 256 256 257 258 259 261 263 264 264 265 266 267 268 269 270 271 272 273 275 277 278 278 279
254 254 254 254 255 254 255 256 255 255 255 255 256 257 257 257 258 257 256 256 256 256 256 258 259 261 263 265 266 266 267 267 269 268 269 270 271 273 274 275 276 278 279
254 253 254 255 254 254 254 255 254 254 254 255 256 257 256 256 256 256 255 255 256 256 257 259 260 261 263 266 267 267 267 268 269 269 268 269 271 273 274 274 276 277 278
254 254 255 254 253 253 254 254 254 254 254 255 256 257 256 257 256 256 255 255 257 258 258 259 261 263 265 266 267 266 267 268 270 270 270 270 272 273 274 276 277 278 278
Height
5862 5864 5866 5867 5868 5869 5870 5871 5872 5873 5874 5875 5875 5876 5876 5876 5877 5877 5877 5877 5877 5877 5877 5877 5877 5877 5877 5877 5877 5877 5877 5876 5876 5876 5875 5875 5875 5874 5874 5873 5872 5872 5871
5858 5860 5862 5864 5865 5866 5868 5869 5870 5871 5872 5873 5873 5874 5874 5875 5875 5875 5875 5876 5876 5876 5876 5876 5876 5876 5876 5876 5876 5875 5875 5875 5875 5874 5874 5874 5873 5873 5872 5871 5871 5870 5869
5854 5856 5858 5860 5862 5863 5865 5866 5867 5868 5869 5870 5871 5871 5872 5872 5873 5873 5874 5874 5874 5874 5874 5874 5874 5874 5874 5874 5874 5874 5874 5873 5873 5873 5872 5872 5871 5871 5870 5870 5869 5868 5867
5850 5852 5854 5856 5858 5859 5861 5862 5864 5865 5866 5867 5868 5869 5869 5870 5871 5871 5871 5872 5872 5872 5872 5873 5873 5873 5872 5872 5872 5872 5872 5872 5871 5871 5870 5870 5869 5869 5868 5867 5866 5866 5865
5845 5847 5849 5851 5853 5855 5857 5859 5860 5861 5863 5864 5865 5866 5867 5867 5868 5869 5869 5869 5870 5870 5870 5870 5870 5870 5870 5870 5870 5870 5870 5869 5869 5868 5868 5867 5867 5866 5866 5865 5864 5863 5862
5840 5842 5844 5847 5849 5851 5853 5854 5856 5858 5859 5860 5861 5862 5863 5864 5865 5866 5866 5867 5867 5867 5868 5868 5868 5868 5868 5868 5867 5867 5867 5867 5866 5866 5865 5865 5864 5864 5863 5862 5861 5860 5859
5835 5837 5840 5842 5844 5846 5848 5850 5852 5853 5855 5856 5857 5858 5859 5860 5861 5862 5863 5864 5864 5864 5865 5865 5865 5865 5865 5865 5864 5864 5864 5864 5863 5863 5862 5862 5861 5860 5860 5859 5858 5857 5856
5830 5832 5834 5837 5839 5841 5843 5845 5847 5848 5850 5851 5853 5854 5855 5856 5858 5858 5859 5860 5860 5861 5861 5861 5861 5861 5861 5861 5861 5861 5861 5861 5860 5860 5859 5858 5858 5857 5856 5856 5855 5854 5853
5824 5827 5829 5831 5833 5836 5838 5840 5841 5843 5845 5846 5848 5849 5850 5852 5853 5854 5855 5856 5856 5857 5857 5858 5858 5858 5858 5858 5858 5857 5857 5857 5856 5856 5855 5855 5854 5854 5853 5852 5851 5850 5849
5818 5821 5823 5826 5828 5830 5832 5834 5836 5838 5839 5841 5842 5844 5845 5847 5848 5849 5850 5851 5852 5852 5853 5853 5854 5854 5854 5854 5854 5854 5853 5853 5852 5852 5851 5851 5850 5850 5849 5848 5847 5846 5845
5813 5815 5818 5820 5822 5824 5827 5828 5830 5832 5834 5835 5837 5838 5839 5841 5842 5843 5845 5846 5847 5847 5848 5848 5849 5849 5849 5849 5849 5849 5848 5848 5848 5847 5847 5846 5846 5845 5844 5843 5842 5841 5840
5807 5809 5812 5814 5817 5819 5821 5823 5824 5826 5827 5829 5830 5832 5833 5835 5836 5837 5839 5840 5841 5842 5842 5843 5843 5844 5844 5844 5844 5844 5843 5843 5843 5842 5842 5842 5841 5840 5840 5839 5838 5837 5835
5801 5803 5805 5808 5810 5812 5814 5816 5818 5820 5821 5822 5824 5825 5826 5828 5829 5831 5832 5834 5835 5835 5836 5837 5838 5838 5838 5838 5838 5838 5838 5838 5837 5837 5837 5836 5836 5835 5835 5834 5833 5831 5830
5794 5797 5799 5801 5803 5805 5807 5809 5811 5812 5814 5815 5817 5818 5819 5821 5822 5824 5825 5827 5828 5829 5830 5831 5831 5832 5832 5832 5832 5832 5832 5832 5832 5831 5831 5831 5830 5830 5829 5828 5827 5826 5825
5788 5790 5792 5794 5796 5798 5800 5801 5803 5805 5806 5808 5809 5810 5812 5813 5815 5816 5818 5820 5821 5822 5823 5824 5825 5825 5826 5826 5826 5826 5826 5826 5825 5825 5825 5824 5824 5824 5823 5822 5821 5820 5819
5780 5782 5784 5786 5788 5790 5792 5794 5795 5796 5798 5799 5801 5802 5803 5805 5807 5808 5810 5812 5813 5814 5815 5817 5817 5818 5818 5819 5819 5819 5819 5819 5819 5818 5818 5818 5818 5817 5816 5815 5815 5814 5812
5773 5775 5777 5779 5780 5782 5784 5785 5787 5788 5789 5790 5792 5793 5795 5797 5799 5800 5802 5803 5805 5806 5807 5809 5810 5810 5811 5811 5812 5812 5812 5812 5812 5812 5811 5811 5810 5810 5809 5808 5808 5807 5805
5766 5767 5769 5770 5772 5774 5775 5777 5778 5779 5780 5782 5783 5784 5786 5788 5789 5791 5793 5795 5796 5798 5799 5801 5802 5802 5803 5804 5804 5804 5804 5804 5804 5804 5804 5803 5803 5802 5802 5801 5800 5799 5798
5758 5759 5761 5762 5764 5765 5767 5768 5769 5770 5771 5773 5774 5775 5777 5779 5780 5782 5784 5786 5787 5789 5790 5792 5793 5794 5794 5795 5796 5796 5796 5797 5796 5796 5796 5795 5795 5795 5794 5793 5792 5791 5790
5750 5751 5752 5754 5755 5757 5758 5760 5761 5762 5762 5763 5765 5766 5768 5770 5771 5773 5775 5777 5778 5780 5781 5783 5784 5785 5786 5786 5787 5788 5788 5788 5788 5788 5788 5787 5787 5787 5786 5785 5784 5783 5782
5741 5743 5744 5745 5747 5748 5749 5751 5752 5754 5754 5755 5756 5758 5759 5761 5763 5764 5766 5767 5769 5770 5772 5773 5775 5775 5776 5777 5778 5779 5779 5779 5779 5779 5779 5779 5779 5778 5777 5776 5775 5774 5773
5733 5734 5735 5737 5738 5739 5741 5742 5743 5744 5745 5747 5748 5749 5750 5752 5754 5755 5756 5758 5759 5761 5762 5764 5765 5766 5767 5767 5768 5769 5770 5771 5770 5770 5770 5770 5770 5769 5768 5767 5766 5765 5764
5725 5726 5727 5728 5729 5730 5731 5733 5734 5735 5737 5738 5739 5740 5742 5743 5744 5746 5747 5748 5750 5751 5753 5754 5756 5757 5758 5758 5758 5759 5760 5761 5761 5761 5761 5760 5760 5760 5759 5758 5757 5756 5755
5717 5717 5718 5719 5720 5721 5722 5724 5725 5726 5728 5729 5730 5731 5733 5734 5735 5736 5737 5739 5740 5742 5743 5745 5746 5747 5748 5749 5749 5749 5750 5750 5751 5752 5751 5751 5750 5750 5749 5748 5748 5746 5745
5709 5709 5710 5710 5711 5713 5714 5715 5716 5718 5719 5720 5722 5723 5724 5725 5726 5727 5729 5730 5731 5732 5734 5735 5737 5738 5739 5739 5740 5740 5740 5740 5740 5741 5741 5741 5740 5740 5739 5738 5738 5737 5736
5701 5702 5702 5703 5703 5704 5705 5707 5708 5709 5711 5712 5713 5714 5715 5716 5717 5718 5719 5721 5722 5723 5725 5726 5727 5728 5729 5730 5730 5730 5730 5730 5730 5730 5731 5731 5731 5730 5729 5728 5728 5727 5726